Flag for Canada Weather past 2 weeks in Saguenay, Quebec, Canada

Now
84 °F

Warm.


Feels Like: 85 °F
Forecast: 64 / 85 °F
Wind: 10 mph from Southwest

Location: Jonquiere Airport

Current Time: Jul 22, 2014 at 4:31:30 PM

Latest Report: Jul 22, 2014 at 12:00 PM


Visibility: N/A

Pressure: 29.94 "Hg

Humidity: 51%

Dew point: 64 °F

Location of SaguenayLocation

Historic Weather in Saguenay — Graph

°F

Saguenay temperature yesterday

Maximum temperature yesterday: 83 °F (at 4:00 PM)
Minimum temperature yesterday: 64 °F (at 5:00 AM)
Average temperature yesterday: 72 °F

Past Weeks' High & Low Weather Summary

 TemperatureHumidityPressure
High84 °F (Jul 22, 12:00 PM)100% (Jul 8, 4:00 AM)30.27 "Hg (Jul 8, 4:00 AM)
Low49 °F (Jul 11, 5:00 AM)34% (Jul 12, 4:00 PM)29.34 "Hg (Jul 9, 4:00 AM)
Average68 °F70%29.91 "Hg
* Reported Jul 7 12:00 Noon — Jul 22 12:00 Noon, Saguenay, Weather by CustomWeather, © 2014

Note: Actual official high and low records may vary slightly from our data, if they occured in-between our weather recording intervals... More about our weather records

Advertising

Saguenay weather history for previous 24 hours

 ConditionsComfort  
Time TempWeatherWind HumidityBarometerVisibility
12:00 PM
Jul 22
84 °FWarm.10 mph51%29.94 "HgN/A
11:00 AM78 °FWarm.12 mph57%29.96 "HgN/A
10:00 AM79 °FWarm.13 mph56%29.96 "HgN/A
9:00 AM76 °FMild.8 mph65%29.98 "HgN/A
8:00 AM73 °FMild.8 mph70%30.01 "HgN/A
7:00 AM70 °FMild.6 mph82%30.01 "HgN/A
6:00 AM63 °FMild.1 mph94%30.00 "HgN/A
5:00 AM66 °FMild.2 mph87%29.99 "HgN/A
4:00 AM66 °FMild.2 mph87%30.00 "HgN/A
3:00 AM69 °FMild.5 mph79%30.01 "HgN/A
2:00 AM71 °FMild.7 mph77%30.03 "HgN/A
1:00 AM70 °FMild.9 mph75%30.04 "HgN/A
12:00 AM70 °FMild.9 mph70%30.04 "HgN/A
11:00 PM
Jul 21
70 °FMild.8 mph75%30.05 "HgN/A
10:00 PM69 °FMild.6 mph82%30.05 "HgN/A
9:00 PM70 °FMild.2 mph75%30.05 "HgN/A
8:00 PM71 °FMild.2 mph76%30.04 "HgN/A
7:00 PM73 °FMild.3 mph71%30.05 "HgN/A
6:00 PM76 °FMild.16 mph63%30.05 "HgN/A
5:00 PM83 °FWarm.12 mph42%30.04 "HgN/A
4:00 PM83 °FWarm.9 mph42%30.06 "HgN/A
Weather by CustomWeather, © 2014

See weather overviewHow to use our weather pages